| time (UTC) | temp F | wind direction | speed MPH | gust MPH | rain 1hr in | rain 24hr in | rain mn in | humidity % | barometer mb |
| 20260502163110 | 50 | 0 | 0.0 | 2.0 | 0.04 | 0.29 | 0.29 | 98 | 1012.7 |
| 20260502161543 | 50 | 0 | 0.0 | 2.0 | 0.04 | 0.29 | 0.29 | 98 | 1012.8 |
| 20260502151545 | 52 | 264 | 0.0 | 4.0 | 0.09 | 0.24 | 0.24 | 97 | 1013.3 |
| 20260502130107 | 53 | 39 | 1.0 | 3.0 | 0.02 | 0.02 | 0.02 | 91 | 1014.5 |
| 20260502123057 | 55 | 335 | 0.0 | 2.0 | 0.00 | 0.00 | 0.00 | 87 | 1015.0 |
| 20260502121547 | 55 | 194 | 1.0 | 3.0 | 0.00 | 0.00 | 0.00 | 87 | 1015.4 |
| 20260502114552 | 56 | 246 | 0.0 | 3.0 | 0.00 | 0.00 | 0.00 | 84 | 1015.7 |
| 20260502113043 | 57 | 255 | 1.0 | 3.0 | 0.00 | 0.00 | 0.00 | 83 | 1015.8 |
| 20260502111550 | 57 | 298 | 1.0 | 3.0 | 0.00 | 0.00 | 0.00 | 82 | 1015.9 |
| 20260502110047 | 58 | 360 | 1.0 | 4.0 | 0.00 | 0.00 | 0.00 | 80 | 1015.9 |
| 20260502104546 | 58 | 208 | 0.0 | 3.0 | 0.00 | 0.00 | 0.00 | 81 | 1016.2 |
| 20260502103045 | 58 | 0 | 0.0 | 4.0 | 0.00 | 0.00 | 0.00 | 81 | 1016.4 |
| 20260502101544 | 58 | 236 | 0.0 | 5.0 | 0.00 | 0.00 | 0.00 | 81 | 1016.7 |
| 20260502070055 | 51 | 25 | 0.0 | 1.0 | 0.00 | 0.00 | 0.00 | 99 | 1017.9 |
| 20260502064550 | 50 | 0 | 0.0 | 1.0 | 0.00 | 0.01 | 0.00 | 99 | 1017.8 |
| 20260502063045 | 49 | 0 | 0.0 | 2.0 | 0.00 | 0.01 | 0.00 | 99 | 1017.8 |
| 20260502061548 | 49 | 0 | 0.0 | 0.0 | 0.00 | 0.01 | 0.00 | 99 | 1017.9 |
| 20260502060051 | 48 | 0 | 0.0 | 0.0 | 0.00 | 0.01 | 0.00 | 99 | 1017.9 |
| 20260502054555 | 47 | 0 | 0.0 | 0.0 | 0.00 | 0.01 | 0.00 | 99 | 1018.2 |
| 20260502053049 | 47 | 0 | 0.0 | 1.0 | 0.00 | 0.01 | 0.00 | 98 | 1018.2 |
| 20260502051546 | 48 | 0 | 0.0 | 0.0 | 0.00 | 0.01 | 0.00 | 99 | 1018.1 |
| 20260502050049 | 47 | 0 | 0.0 | 0.0 | 0.00 | 0.01 | 0.00 | 99 | 1018.3 |
| 20260502044551 | 47 | 0 | 0.0 | 0.0 | 0.00 | 0.01 | 0.00 | 99 | 1018.3 |
| 20260502043052 | 47 | 0 | 0.0 | 0.0 | 0.00 | 0.01 | 0.00 | 99 | 1018.2 |
| 20260502041548 | 47 | 0 | 0.0 | 0.0 | 0.00 | 0.01 | 0.00 | 99 | 1018.2 |
| 20260502040047 | 47 | 0 | 0.0 | 0.0 | 0.00 | 0.01 | 0.00 | 98 | 1018.2 |
| 20260502034545 | 47 | 0 | 0.0 | 0.0 | 0.00 | 0.01 | 0.00 | 98 | 1018.3 |
| 20260502033047 | 47 | 0 | 0.0 | 0.0 | 0.00 | 0.01 | 0.00 | 99 | 1018.4 |
| 20260502031551 | 47 | 0 | 0.0 | 0.0 | 0.00 | 0.01 | 0.00 | 98 | 1018.5 |
| 20260502030046 | 47 | 0 | 0.0 | 0.0 | 0.00 | 0.01 | 0.00 | 98 | 1018.7 |
| 20260502024545 | 47 | 0 | 0.0 | 0.0 | 0.00 | 0.01 | 0.00 | 98 | 1018.9 |
| 20260502023048 | 47 | 0 | 0.0 | 0.0 | 0.00 | 0.01 | 0.00 | 98 | 1019.0 |
| 20260502021549 | 47 | 0 | 0.0 | 0.0 | 0.00 | 0.01 | 0.00 | 98 | 1019.2 |
| 20260502020047 | 47 | 0 | 0.0 | 0.0 | 0.00 | 0.01 | 0.00 | 98 | 1019.2 |
| 20260502014558 | 48 | 0 | 0.0 | 0.0 | 0.00 | 0.01 | 0.00 | 98 | 1019.4 |
| 20260502013055 | 48 | 0 | 0.0 | 0.0 | 0.00 | 0.01 | 0.00 | 98 | 1019.6 |
| 20260502011551 | 48 | 0 | 0.0 | 0.0 | 0.00 | 0.01 | 0.00 | 98 | 1019.7 |
| 20260502010058 | 48 | 0 | 0.0 | 0.0 | 0.00 | 0.01 | 0.00 | 98 | 1019.8 |
| 20260502004546 | 48 | 0 | 0.0 | 0.0 | 0.00 | 0.01 | 0.00 | 98 | 1019.8 |
| 20260502003052 | 49 | 0 | 0.0 | 0.0 | 0.00 | 0.01 | 0.00 | 98 | 1020.0 |
| 20260502001547 | 49 | 0 | 0.0 | 0.0 | 0.00 | 0.01 | 0.00 | 98 | 1020.1 |
| 20260502000054 | 49 | 0 | 0.0 | 0.0 | 0.00 | 0.01 | 0.00 | 97 | 1020.0 |
| 20260501234550 | 49 | 0 | 0.0 | 0.0 | 0.00 | 0.01 | 0.00 | 97 | 1020.2 |
| 20260501233102 | 50 | 0 | 0.0 | 0.0 | 0.00 | 0.01 | 0.00 | 97 | 1020.1 |
| 20260501231557 | 50 | 0 | 0.0 | 0.0 | 0.00 | 0.01 | 0.00 | 97 | 1020.2 |
| 20260501230047 | 50 | 0 | 0.0 | 0.0 | 0.00 | 0.01 | 0.00 | 97 | 1020.3 |
| 20260501224554 | 51 | 0 | 0.0 | 0.0 | 0.00 | 0.01 | 0.01 | 97 | 1020.3 |
| 20260501223052 | 51 | 0 | 0.0 | 1.0 | 0.00 | 0.01 | 0.01 | 96 | 1020.5 |
| 20260501221551 | 51 | 0 | 0.0 | 0.0 | 0.00 | 0.01 | 0.01 | 97 | 1020.6 |
| 20260501220059 | 51 | 0 | 0.0 | 0.0 | 0.00 | 0.01 | 0.01 | 97 | 1020.8 |
| 20260501214544 | 50 | 0 | 0.0 | 0.0 | 0.00 | 0.01 | 0.01 | 96 | 1020.6 |
| 20260501213050 | 50 | 0 | 0.0 | 0.0 | 0.00 | 0.01 | 0.01 | 96 | 1020.6 |
| 20260501211546 | 51 | 0 | 0.0 | 0.0 | 0.00 | 0.01 | 0.01 | 96 | 1020.5 |
| 20260501210047 | 51 | 53 | 0.0 | 2.0 | 0.00 | 0.01 | 0.01 | 95 | 1020.3 |
| 20260501204545 | 52 | 157 | 0.0 | 2.0 | 0.00 | 0.01 | 0.01 | 95 | 1020.3 |
| 20260501203045 | 52 | 55 | 0.0 | 3.0 | 0.00 | 0.01 | 0.01 | 95 | 1020.2 |
| 20260501201556 | 53 | 0 | 0.0 | 2.0 | 0.00 | 0.01 | 0.01 | 94 | 1020.3 |
| 20260501200050 | 53 | 0 | 0.0 | 1.0 | 0.00 | 0.01 | 0.01 | 94 | 1020.2 |
| 20260501194547 | 54 | 0 | 0.0 | 6.0 | 0.00 | 0.01 | 0.01 | 93 | 1020.1 |
| 20260501193044 | 54 | 129 | 0.0 | 2.0 | 0.00 | 0.01 | 0.01 | 91 | 1020.1 |
| 20260501191550 | 55 | 0 | 0.0 | 1.0 | 0.00 | 0.01 | 0.01 | 90 | 1020.1 |
| 20260501190046 | 55 | 0 | 0.0 | 1.0 | 0.00 | 0.01 | 0.01 | 89 | 1019.9 |
| 20260501184547 | 56 | 217 | 0.0 | 0.0 | 0.00 | 0.01 | 0.01 | 88 | 1019.9 |
| 20260501183054 | 57 | 0 | 0.0 | 1.0 | 0.00 | 0.01 | 0.01 | 87 | 1019.9 |
| 20260501181550 | 58 | 0 | 0.0 | 1.0 | 0.00 | 0.01 | 0.01 | 86 | 1019.7 |
| 20260501180052 | 59 | 335 | 0.0 | 2.0 | 0.00 | 0.01 | 0.01 | 85 | 1019.7 |
| 20260501174551 | 59 | 0 | 0.0 | 2.0 | 0.00 | 0.01 | 0.01 | 83 | 1019.8 |
| 20260501173049 | 58 | 0 | 0.0 | 3.0 | 0.00 | 0.01 | 0.01 | 83 | 1019.8 |